Regional Weather Roundup
Issued by NWS

Home | Current Version | Previous Version | Text Only | Print | Product List | Glossary Off
Versions: 1 2 3 4 5 6 7 8 9 10 11 12 13 14 15 16 17 18 19 20 21 22 23 24 25 26 27 28 29 30 31 32 33 34 35 36 37 38 39 40 41 42 43 44 45 46 47 48 49 50

698
ASUS45 KTFX 081210
RWRMT
MONTANA REGIONAL WEATHER ROUNDUP
NATIONAL WEATHER SERVICE GREAT FALLS MT
500 AM MST MON FEB 08 2016

NOTE: "FAIR" INDICATES FEW OR NO CLOUDS BELOW 12000 FEET WITH NO
SIGNIFICANT WEATHER AND/OR OBSTRUCTIONS TO VISIBILITY.

MTZ001>007-043-081300-
WEST OF THE DIVIDE

CITY           SKY/WX    TMP DP  RH WIND       PRES   REMARKS
KALISPELL      CLOUDY    31  27  85 S5        30.61R
MISSOULA       CLOUDY    31  25  78 W3        30.64R
BUTTE          CLOUDY    26  19  74 N5        30.55S
MULLAN PASS    CLOUDY    32  26  78 SW5       30.55S
ANACONDA         N/A     30  19  64 CALM      30.57R
DEER LODGE       N/A     30  25  80 CALM      30.58S
HAMILTON         N/A     30  25  80 CALM      30.60S
LIBBY            N/A     30  27  86 CALM      30.65S
PLAINS           N/A     29  24  81 CALM      30.60S
THOMPSON FALLS   N/A     31  28  88 CALM      30.64S
$$

MTZ008-052>055-081300-
SOUTHWEST MONTANA

CITY           SKY/WX    TMP DP  RH WIND       PRES   REMARKS
BOZEMAN        CLOUDY    30  23  75 W3        30.54F
DILLON         CLOUDY    24  13  62 CALM      30.55S
ENNIS          CLEAR     28  21  74 S8        30.60R WCI  20
TWIN BRIDGES     N/A     24  14  65 E5        30.48S
$$

MTZ009-010-012-014-046-048-049-054-081300-
EAST SLOPES AND CENTRAL MONTANA

CITY           SKY/WX    TMP DP  RH WIND       PRES   REMARKS
CUT BANK       CLOUDY    39  23  52 W26       30.36R WCI  28
GREAT FALLS    CLOUDY    37  22  54 SW15      30.41R WCI  28
MALMSTROM AFB  CLOUDY    33  24  69 SW13      30.42R WCI  23
HELENA         CLOUDY    27  21  78 CALM      30.51R
CHOTEAU          N/A     43  25  49 W15G24    30.39S
CONRAD           N/A     35  26  70 SE3       30.35R
$$

MTZ011-013-016-021-045-047-050-051-081300-
NORTH CENTRAL MONTANA

CITY           SKY/WX    TMP DP  RH WIND       PRES   REMARKS
HAVRE          CLOUDY    18  14  84 CALM      30.40R
LEWISTOWN      CLOUDY    28  17  63 W8        30.39R WCI  20
N BAR RANCH      N/A     36  21  55 NW14      30.38R WCI  27
CHINOOK          N/A     16  12  86 CALM      30.42S
$$

MTZ017>020-022>027-061-062-081300-
NORTHEAST MONTANA

CITY           SKY/WX    TMP DP  RH WIND       PRES   REMARKS
GLASGOW        CLOUDY    20  14  77 NW5       30.40S
JORDAN           N/A     22  18  85 CALM      30.40F
SIDNEY         CLOUDY    23  14  68 W12       30.37R WCI  12
WOLF POINT     CLOUDY    22  16  78 SW7       30.41S WCI  13
PLENTYWOOD       N/A     19  14  79 SW3       30.35R
POPLAR           N/A     21  16  79 SW7       30.40F WCI  13
SCOBEY           N/A     19   6  57 CALM      30.32R
$$

MTZ028>42-056>058-081300-
SOUTHCENTRAL AND SOUTHEAST MONTANA

CITY           SKY/WX    TMP DP  RH WIND       PRES   REMARKS
BAKER          CLOUDY    20  13  74 W13       30.36S WCI   7
BILLINGS       CLOUDY    31  13  47 SW10      30.41R WCI  22
LIVINGSTON     CLOUDY    42  22  44 W22       30.47S
MILES CITY     PTCLDY    23  15  71 W9        30.41R WCI  13
EKALAKA          N/A     20  10  65 W5        30.28F
FORSYTH          N/A     25  12  58 CALM      30.43S
LAUREL           N/A     26  10  50 CALM      30.36R
ROUNDUP          N/A     22  10  59 CALM      30.28S
$$

REGIONAL REPORTS...DAKOTAS

CITY           SKY/WX    TMP DP  RH WIND       PRES   REMARKS
WILLISTON      CLEAR     23  16  74 NW13      30.35R WCI  11
MINOT          CLEAR     24  15  68 W21       30.24R WCI   9
DICKINSON      CLEAR     18  13  80 W14       30.28S WCI   4
BEACH            N/A     19  14  79 W12       30.37S WCI   7
CROSBY           N/A     21  19  93 NW14      30.35R WCI   8
TIOGA            N/A     18  18 100 NW13      30.36R WCI   4
WATFORD CITY     N/A     19  16  86 NW9       30.34R WCI   9
BISMARCK       CLEAR     27  17  66 NW20G31   30.24S WCI  13
GRAND FORKS    LGT SNOW  13   8  81 N18       30.14R BLWGSNOWWCI  -4
FARGO          FOG       13   9  84 N30G40    30.13R VSB 1/2 WCI  -8
BUFFALO SD       N/A     20  12  71 W10       30.27R WCI   9
RAPID CITY     CLOUDY    28   9  44 NW25G33   30.30F WCI  13
$$

REGIONAL REPORTS...WYOMING/IDAHO/WASHINGTON

CITY           SKY/WX    TMP DP  RH WIND       PRES   REMARKS
GILLETTE       CLOUDY    21   9  59 W13       30.38R WCI   9
SHERIDAN       CLOUDY    30  12  47 CALM      30.38F
BUFFALO WY     CLOUDY    24  12  60 CALM      30.38S
CODY           CLOUDY    21  12  68 CALM      30.40R
YELLOWSTONE LA   N/A     11   7  84 CALM      30.59R
IDAHO FALLS    FOG       22  20  92 CALM      30.68S VSB 1/2
SALMON         CLOUDY    21  18  86 CALM      30.70S
BOISE          CLEAR     32  28  85 SE7       30.66F WCI  26
SPOKANE        MOCLDY    31  28  89 NE5       30.60S
$$

REGIONAL REPORTS...ALBERTA

CITY           SKY/WX    TMP DP  RH WIND       PRES   REMARKS
EDMONTON       CLOUDY    30  16  55 S5        30.26F
CALGARY        PTCLDY    45  23  42 VRB12G17  30.27R
LETHBRIDGE     CLEAR     41  27  56 W21G28    30.33S
MEDICINE HAT   PTCLDY    19  16  86 S6        30.35F WCI  11
WATERTON GATE    N/A     39  23  52 SW25G35     N/A  WCI  28
CARDSTON         N/A     43  23  45 W15G23      N/A
MILK RIVER       N/A     27  23  86 W8          N/A  WCI  18
$$

REGIONAL REPORTS...SASKATCHEWAN

CITY           SKY/WX    TMP DP  RH WIND       PRES   REMARKS
SWIFT CURRENT  CLOUDY    21  16  79 W9        30.35S WCI  11
REGINA         MOCLDY    16  14  93 NW7       30.33R WCI   6
SASKATOON      MOCLDY    14  10  85 W5        30.38R
CYPRESS HILLS    N/A     23   5  46 SW2         N/A
VAL MARIE        N/A     19  12  73 N1          N/A
ROCKGLEN         N/A     23  14  68 NW10G17     N/A  WCI  12
ASSINIBOIA       N/A     27  21  80 S5          N/A
$$




USA.gov is the U.S. government's official web portal to all federal, state and local government web resources and services.